Погода в Пальцеве

Россия / Псковская область     57°15′15″N   28°04′48″E
темп.,
°C
ветер,
м/с
пор.,
м/с
влажн.,
%
обл.,
%
осадки,
мм/ч
давл.,
гПа
погр.,
м
28 сентября, вт
вт2800:00+6всв22920 0.0 103023
03:00+5св22944 0.0 103119
06:00+5св22955 0.0 103127
09:00+7всв24885 0.0 1031165
12:00+12в34665 0.0 1032771
15:00+13в345794 0.0 10321397
18:00+11в2565100 0.0 1032144
21:00+9вюв2675100 0.0 1033226
29 сентября, ср
ср2900:00+9вюв2679100 0.0 1034175
03:00+8юв2683100 0.0 1035221
06:00+8юв3683100 0.0 1035242
09:00+7юв37785 0.0 1035267
12:00+11юв445944 0.0 1035831
15:00+13юв45538 0.0 10341314
18:00+10юв34655 0.0 103389
21:00+6юв35785 0.0 103471
30 сентября, чт
чт3000:00+4ююв36837 0.0 103493
03:00+3юв37885 0.0 1034124
06:00+3юв38925 0.0 1034147
09:00+5ююв49805 0.0 1034274
12:00+11ююв58605 0.0 1033843
15:00+13ююв57525 0.0 10321173
18:00+11ююв38655 0.0 1031233
21:00+6ююв39835 0.0 1031171
1 октября, пт
пт100:00+5ююв310905 0.0 1032190
03:00+5ююв399322 0.0 1032178
06:00+6ююв388390 0.0 1031228
09:00+8ю3979100 0.0 1032262
12:00+11ю4866100 0.0 1032486
15:00+12ю4663100 0.0 1031710
18:00+11ю237399 0.0 103068
21:00+7ю37855 0.0 1030123
2 октября, сб
сб200:00+6ю369083 0.0 1030110
03:00+8ю378053 0.0 1030215
06:00+6ю379359 0.0 1029179
09:00+7ю378630 0.0 1029212
12:00+11ю4762100 0.0 1028512
15:00+14ю575188 0.0 1027933
18:00+12ююв41063100 0.0 1026440
21:00+10ююв51370100 0.0 1026461